Tracking 28888 objects as of 22-May-2024
HD Live streaming from Space Station
objects crossing your sky now

STARLINK-4302

Track STARLINK-4302 now!
10-day predictions
STARLINK-4302 is classified as:


NORAD ID: 53481
Int'l Code: 2022-099S
Perigee: 568.1 km
Apogee: 572.3 km
Inclination: 97.7 °
Period: 95.9 minutes
Semi major axis: 6941 km
RCS: Unknown
Launch date: August 12, 2022
Source: United States (US)
Launch site: AIR FORCE WESTERN TEST RANGE (AFWTR)
Your satellite tracking list
Your tracking list is empty




NASA's NSSDC Master Catalog

Two Line Element Set (TLE):
1 53481U 22099S   24142.91114123  .00011222  00000-0  87725-3 0  9998
2 53481  97.6544 264.1197 0003049 255.4719 104.6167 15.01242212 97682
Source of the keplerian elements: AFSPC